Chillicothe, MO

12:16 AM CST on December 13, 2019 (GMT -0600)
Chillicothe

Weather History for KCDJ - October, 2019

Change the Weather History Date:

Sunday, October 20, 2019

  Actual Average (KIRK) Record (KIRK)
Temperature  
Mean Temperature 52 °F -  
Max Temperature 64 °F 63 °F 85 °F (1953)
Min Temperature 41 °F 42 °F 20 °F (1960)
Degree Days  
Heating Degree Days 13    
Growing Degree Days 2 (Base 50)    
Moisture  
Dew Point 48 °F    
Average Humidity 84    
Maximum Humidity 100    
Minimum Humidity 52    
Precipitation  
Precipitation 0.01 in - - ()
Sea Level Pressure  
Sea Level Pressure 29.80 in    
Wind  
Wind Speed 3 mph (ESE)    
Max Wind Speed 14 mph    
Max Gust Speed 24 mph    
Averages and records for this station are not official NWS values.
T = Trace of Precipitation, MM = Missing Value Source: NWS Daily Summary

Daily Weather History Graph

Daily Weather History Graph

Search for Another Location

Airport or City:

Astronomy

Oct. 20, 2019 Rise Set
Actual Time 7:29 AM CDT 6:27 PM CDT
Civil Twilight 7:02 AM CDT 6:55 PM CDT
Nautical Twilight 6:30 AM CDT 7:26 PM CDT
Astronomical Twilight 5:59 AM CDT 7:57 PM CDT
Moon 11:38 PM CDT (10/20) 1:57 PM CDT (10/20)
Length of Visible Light 11h 53m
Length of Day
10h 58m
Waning Gibbous, 59% of the Moon is Illuminated
Oct 20
Waning Gibbous
Oct 21
Last Quarter
Oct 27
New
Nov 4
First Quarter
Nov 12
Full

Hourly Weather History & Observations

Time (CDT) Temp. Windchill Dew Point Humidity Pressure Visibility Wind Dir Wind Speed Gust Speed Precip Events Conditions
12:52 AM 44.1 °F - 43.0 °F 96% 29.87 in - Calm Calm - N/A   Unknown
1:52 AM 42.1 °F - 42.1 °F 100% 29.86 in - Calm Calm - N/A   Unknown
2:52 AM 41.0 °F 39.0 °F 41.0 °F 100% 29.86 in - SSE 3.5 mph - N/A   Unknown
3:52 AM 42.1 °F - 42.1 °F 100% 29.85 in - Calm Calm - N/A   Unknown
4:52 AM 44.1 °F - 44.1 °F 100% 29.86 in - Calm Calm - N/A   Unknown
5:52 AM 45.0 °F - 45.0 °F 100% 29.87 in - Calm Calm - 0.01 in   Unknown
6:52 AM 43.0 °F - 43.0 °F 100% 29.89 in - Calm Calm - N/A   Unknown
7:52 AM 42.1 °F - 42.1 °F 100% 29.89 in - Calm Calm - N/A   Unknown
9:52 AM 46.9 °F - 46.9 °F 100% 29.92 in - Calm Calm - N/A   Unknown
10:52 AM 50.0 °F - 50.0 °F 100% 29.91 in - Variable 3.5 mph - N/A   Unknown
11:52 AM 55.0 °F - 52.0 °F 89% 29.90 in - Variable 5.8 mph - N/A   Unknown
12:52 PM 60.1 °F - 48.9 °F 67% 29.87 in - SE 10.4 mph 20.7 mph N/A   Unknown
1:52 PM 62.1 °F - 46.0 °F 56% 29.82 in - ESE 13.8 mph 24.2 mph N/A   Unknown
2:52 PM 63.0 °F - 45.0 °F 52% 29.77 in - ESE 10.4 mph 20.7 mph N/A   Unknown
3:52 PM 62.1 °F - 48.9 °F 62% 29.77 in - ESE 10.4 mph 20.7 mph N/A   Unknown
4:52 PM 63.0 °F - 48.9 °F 60% 29.75 in - SE 11.5 mph 17.3 mph N/A   Unknown
5:52 PM 61.0 °F - 50.0 °F 67% 29.74 in - ESE 8.1 mph - N/A   Unknown
6:52 PM 60.1 °F - 51.1 °F 72% 29.73 in - ESE 5.8 mph - N/A   Unknown
7:52 PM 59.0 °F - 52.0 °F 78% 29.73 in - Calm Calm - N/A   Unknown
8:52 PM 59.0 °F - 52.0 °F 78% 29.70 in - ESE 8.1 mph - N/A   Unknown
9:52 PM 57.9 °F - 53.1 °F 84% 29.66 in - ESE 9.2 mph 20.7 mph N/A   Unknown
10:52 PM 57.0 °F - 53.1 °F 87% 29.61 in - ESE 8.1 mph 17.3 mph N/A   Unknown
11:52 PM 57.0 °F - 54.0 °F 89% 29.60 in - Calm Calm - N/A   Unknown